[[{"header":{"parameterUnit":"m.s-1","parameterCategory":1,"la1":30.2991,"la2":30.254,"lo1":-89.0895,"lo2":-89.0444,"dy":0.0017,"dx":0.0017,"nx":28,"ny":28,"refTime":"2025-05-29T03:00:00:Z","depth":0,"parameterNumber":2,"parameterNumberName":"U-component_of_WINDS"},"data":[0,0,0,0,0,0,0,0,0,0,0,0,0,0,0,0,0,0,0,0,0,0,0,0,0,0,0,0,0,0,0,0,0,0,0,0,0,0,0,0,0,0,0,0,0,0,0,0,0,0,0,0,0,0,0,0,0,0,0.2828,0.2829,0,0.2888,0.2889,0.289,0.2922,0.2922,0.2922,0.2922,0.2982,0.2983,0.2985,0,0,0,0,0,0,0,0,0,0,0,0,0,0.274,0.2742,0.2828,0.2829,0.283,0.2888,0.2889,0.289,0.2922,0.2922,0.2922,0.2922,0.2981,0.2983,0.2985,0,0,0,0,0,0,0,0,0,0,0,0,0,0.2787,0.2742,0.2828,0.2853,0.2856,0.2888,0.2889,0.289,0.2921,0.2922,0.2922,0.2922,0.2981,0.2983,0.2985,0.2997,0,0,0.2992,0.2993,0,0,0,0,0,0,0,0,0.2784,0.279,0.2848,0.2851,0.2854,0.2898,0.288,0.2926,0.2921,0.2896,0.2922,0.2922,0.2953,0.2958,0.2969,0.3,0.3003,0.2992,0.2994,0.2995,0.2995,0,0,0,0,0,0,0,0.2781,0.2788,0.2852,0.2849,0.2853,0.286,0.2867,0.2889,0.2924,0.2899,0.2901,0.2908,0.2955,0.2967,0.2971,0.3003,0.2992,0.2994,0.2996,0.2997,0.3047,0.3047,0,0,0,0,0,0,0.2774,0.2785,0.285,0.2854,0.2819,0.2862,0.2869,0.2884,0.2923,0.293,0.2908,0.2909,0.2963,0.2968,0.2973,0.299,0.2995,0.2997,0.2998,0.3047,0.3047,0.3047,0,0,0,0,0,0,0.2772,0.278,0.2848,0.282,0.2829,0.2863,0.2879,0.2885,0.2896,0.293,0.2937,0.2913,0.2963,0.297,0.2991,0.2992,0.2998,0.3,0.3047,0.3047,0.3047,0.3023,0,0,0,0,0,0,0.277,0.2779,0.2784,0.282,0.2831,0.2865,0.2879,0.2886,0.29,0.2903,0.2937,0.2943,0.2964,0.2987,0.2993,0.2995,0.3002,0.3048,0.3047,0.3047,0.3024,0.3023,0.3021,0,0,0,0,0,0.2766,0.2775,0.2784,0.2792,0.2838,0.2865,0.2871,0.2895,0.29,0.2906,0.2928,0.2942,0.2991,0.2989,0.2996,0.2999,0.3048,0.3047,0.3047,0.3025,0.3023,0.3021,0,0,0,0,0,0,0.2737,0.278,0.2791,0.2811,0.2834,0.2871,0.2878,0.2892,0.2914,0.2915,0.2944,0.2951,0.297,0.2987,0.2984,0.3013,0.3021,0.3022,0.3001,0.3,0.2998,0.2994,0.3004,0,0,0,0,0,0.2733,0.2752,0.2788,0.2803,0.2814,0.2844,0.2856,0.2873,0.2898,0.2908,0.2931,0.2955,0.2976,0.2989,0.301,0.3027,0.3035,0.3032,0.3031,0.3029,0.303,0.304,0.304,0.3047,0.3047,0.3047,0,0,0.2725,0.2751,0.2761,0.2797,0.2817,0.2836,0.2852,0.2871,0.2885,0.2911,0.2932,0.295,0.2978,0.2998,0.3007,0.3012,0.303,0.3029,0.3028,0.3029,0.304,0.304,0.3039,0.3047,0.3047,0.3047,0,0,0.272,0.2741,0.2755,0.2775,0.2805,0.2825,0.2829,0.2863,0.2876,0.2899,0.2918,0.2935,0.297,0.299,0.3004,0.3006,0.302,0.3012,0.3004,0.3014,0.3013,0.3013,0.3013,0.3013,0.3013,0.3013,0.3013,0,0.2705,0.2735,0.2761,0.2779,0.2794,0.2819,0.2834,0.2851,0.2887,0.2897,0.2902,0.2947,0.2967,0.2991,0.2992,0.3003,0.3007,0.3008,0.3011,0.3011,0.3011,0.3012,0.3012,0.3011,0.3012,0.3012,0.3012,0,0.2716,0.2736,0.2743,0.2778,0.2794,0.281,0.2838,0.2851,0.2867,0.2886,0.2908,0.2934,0.2961,0.2968,0.2982,0.2994,0.2996,0.3006,0.3014,0.3009,0.301,0.301,0.301,0.301,0.3011,0.3011,0,0,0.2693,0.2742,0.2744,0.276,0.2795,0.2811,0.2828,0.2855,0.2866,0.2889,0.2904,0.2933,0.2943,0.2959,0.2976,0.2985,0.2985,0.2993,0.2994,0.2991,0.2999,0.2991,0.2991,0.2994,0.2994,0.2994,0.2996,0,0.2692,0.2725,0.2749,0.2772,0.2791,0.2815,0.283,0.2853,0.2871,0.289,0.291,0.293,0.2941,0.2951,0.2961,0.2982,0.2987,0.2983,0.3008,0.3009,0.3,0.2992,0.2984,0.2985,0.2997,0.2997,0.2997,0,0.2696,0.2719,0.2744,0.2778,0.2787,0.28,0.2826,0.2843,0.287,0.2883,0.2901,0.2919,0.2938,0.2945,0.2971,0.2968,0.298,0.2992,0.2992,0.2995,0.3002,0.2994,0.2985,0.2985,0.2998,0.2998,0.2998,0,0.2677,0.2714,0.2734,0.2747,0.2787,0.2795,0.2812,0.2839,0.2854,0.2877,0.2886,0.2911,0.2924,0.2943,0.2967,0.2969,0.299,0.2999,0.3001,0.3001,0.3004,0.3004,0.2997,0.3012,0.3012,0.3012,0.3012,0,0.2673,0.2688,0.2726,0.2738,0.2755,0.2783,0.2798,0.2817,0.2841,0.2857,0.2879,0.2894,0.2924,0.2943,0.2961,0.298,0.2986,0.2997,0.3002,0.2995,0.2993,0.3003,0.3003,0.3012,0.3012,0.3012,0.3012,0,0.2655,0.2681,0.2704,0.274,0.275,0.276,0.2791,0.2803,0.2823,0.2843,0.285,0.2881,0.2903,0.2929,0.296,0.2973,0.299,0.2997,0.2981,0.2984,0.2985,0.2984,0.2983,0.2984,0.2999,0.2999,0.2999,0,0.265,0.2662,0.27,0.2712,0.2729,0.2748,0.2764,0.2791,0.2806,0.2837,0.2846,0.287,0.2891,0.2926,0.2951,0.2975,0.2983,0.2981,0.2986,0.2979,0.2983,0.2981,0.2983,0.2979,0.2979,0.2978,0.2978,0,0.264,0.2653,0.2674,0.27,0.2718,0.2739,0.2761,0.277,0.2802,0.2818,0.2841,0.2858,0.2889,0.2913,0.294,0.2957,0.2973,0.2976,0.2978,0.2971,0.2961,0.2966,0.2977,0.2976,0.2976,0.2977,0.2977,0.2977,0.2629,0.264,0.2668,0.2691,0.2711,0.2732,0.2745,0.2767,0.2788,0.2816,0.2831,0.2854,0.2881,0.2919,0.2935,0.2954,0.2959,0.2961,0.2962,0.2962,0.296,0.2958,0.2959,0.2959,0.2959,0.2959,0.2959,0,0.2619,0.2639,0.266,0.2691,0.2709,0.2723,0.2748,0.2762,0.2782,0.2806,0.2826,0.2853,0.2877,0.2904,0.2929,0.2938,0.2946,0.2944,0.2943,0.2947,0.2954,0.295,0.2937,0.2937,0.2937,0.2937,0.2937,0.2937,0.2616,0.2637,0.2653,0.2683,0.2703,0.2726,0.2739,0.2758,0.2777,0.2807,0.2826,0.2844,0.2869,0.2897,0.2918,0.2926,0.2934,0.2929,0.2939,0.2945,0.2947,0.2948,0.2945,0.2931,0.2931,0.293,0.293,0.293]},{"header":{"parameterUnit":"m.s-1","parameterCategory":1,"la1":30.2991,"la2":30.254,"lo1":-89.0895,"lo2":-89.0444,"dy":0.0017,"dx":0.0017,"nx":28,"ny":28,"refTime":"2025-05-29T03:00:00:Z","depth":0,"parameterNumber":3,"parameterNumberName":"V-component_of_WINDS"},"data":[0,0,0,0,0,0,0,0,0,0,0,0,0,0,0,0,0,0,0,0,0,0,0,0,0,0,0,0,0,0,0,0,0,0,0,0,0,0,0,0,0,0,0,0,0,0,0,0,0,0,0,0,0,0,0,0,0,0,2.8283,2.8283,0,2.8308,2.8309,2.8309,2.8279,2.8278,2.8277,2.8276,2.83,2.8301,2.8303,0,0,0,0,0,0,0,0,0,0,0,0,0,2.8207,2.8209,2.8283,2.8283,2.8284,2.8308,2.8309,2.8309,2.8279,2.8278,2.8276,2.8275,2.8299,2.8301,2.8303,0,0,0,0,0,0,0,0,0,0,0,0,0,2.8237,2.8209,2.8283,2.8272,2.8271,2.8308,2.8309,2.8309,2.8279,2.8278,2.8276,2.8275,2.8298,2.8301,2.8303,2.8352,0,0,2.8311,2.8312,0,0,0,0,0,0,0,0,2.8235,2.824,2.8273,2.8273,2.8272,2.8289,2.8291,2.8323,2.828,2.8276,2.8276,2.8274,2.8297,2.83,2.8308,2.8353,2.8354,2.8311,2.8313,2.8314,2.8315,0,0,0,0,0,0,0,2.8233,2.8238,2.8293,2.8274,2.8273,2.8265,2.8267,2.8297,2.8296,2.8276,2.8274,2.8278,2.8297,2.8306,2.8308,2.8355,2.8311,2.8313,2.8315,2.8316,2.844,2.8442,0,0,0,0,0,0,2.8233,2.8237,2.8292,2.8294,2.8249,2.8268,2.827,2.8285,2.8295,2.8295,2.8279,2.8276,2.8302,2.8306,2.8309,2.8366,2.8314,2.8316,2.8318,2.8438,2.8441,2.8442,0,0,0,0,0,0,2.8231,2.8238,2.8291,2.8265,2.8271,2.8271,2.8287,2.8286,2.8295,2.8297,2.8297,2.8289,2.8301,2.8306,2.8342,2.8367,2.8317,2.832,2.8436,2.8439,2.8441,2.8481,0,0,0,0,0,0,2.8229,2.8238,2.8257,2.8265,2.8273,2.8324,2.8289,2.8288,2.83,2.8297,2.8306,2.8306,2.83,2.8338,2.8344,2.8369,2.8322,2.8434,2.8437,2.8441,2.8478,2.8485,2.8491,0,0,0,0,0,2.8227,2.8267,2.8258,2.8265,2.8296,2.8325,2.8329,2.8322,2.8302,2.8321,2.8322,2.8306,2.8363,2.8342,2.8349,2.8375,2.8432,2.8436,2.844,2.8475,2.8484,2.8491,0,0,0,0,0,0,2.826,2.8268,2.8258,2.8302,2.8313,2.832,2.8344,2.8332,2.8348,2.8344,2.8334,2.8336,2.8374,2.8378,2.8355,2.8422,2.8394,2.84,2.8418,2.8427,2.8433,2.8431,2.8324,0,0,0,0,0,2.8273,2.8296,2.8301,2.834,2.8346,2.8344,2.8356,2.835,2.8361,2.8365,2.8369,2.838,2.84,2.8414,2.8433,2.8478,2.848,2.85,2.8506,2.8512,2.8517,2.854,2.8549,2.8456,2.8456,2.8456,0,0,2.8299,2.8306,2.8321,2.8347,2.8355,2.8379,2.8348,2.8375,2.8392,2.8369,2.8403,2.8407,2.8418,2.8459,2.8477,2.8463,2.8543,2.8517,2.8521,2.8523,2.8546,2.8554,2.8562,2.8458,2.8458,2.8458,0,0,2.8359,2.8367,2.8399,2.8408,2.8421,2.8419,2.8427,2.8436,2.8437,2.8471,2.8454,2.8475,2.851,2.8519,2.8528,2.8591,2.8576,2.8597,2.8632,2.8655,2.8663,2.8669,2.8691,2.8699,2.8602,2.8602,2.8602,0,2.8389,2.8425,2.8417,2.8445,2.8457,2.8437,2.847,2.8479,2.8497,2.8504,2.8489,2.8533,2.8539,2.8581,2.8597,2.8605,2.8613,2.8596,2.8663,2.8669,2.8675,2.8695,2.8704,2.8604,2.8604,2.8604,2.8604,0,2.8462,2.8487,2.8512,2.853,2.8544,2.8575,2.8571,2.8586,2.8578,2.8578,2.8612,2.8619,2.8639,2.8649,2.8641,2.869,2.8681,2.8664,2.8636,2.8686,2.8705,2.8713,2.8608,2.8607,2.8606,2.8606,0,0,2.8543,2.8557,2.8566,2.8574,2.8586,2.8605,2.8634,2.8654,2.8667,2.868,2.8703,2.8734,2.8718,2.8729,2.8722,2.8743,2.8791,2.8723,2.8723,2.8735,2.8845,2.8857,2.8866,2.8782,2.8783,2.8785,2.8843,0,2.8603,2.8653,2.8647,2.8695,2.8718,2.87,2.8725,2.8735,2.8736,2.8754,2.8755,2.8776,2.8754,2.876,2.878,2.8781,2.8813,2.8777,2.8803,2.8804,2.88,2.8876,2.8889,2.8944,2.8851,2.8852,2.8853,0,2.8679,2.8695,2.8745,2.8754,2.8763,2.8786,2.8803,2.8822,2.8833,2.8832,2.8843,2.8833,2.8861,2.8833,2.8871,2.8847,2.8857,2.8859,2.8861,2.8863,2.8831,2.8879,2.8962,2.897,2.8865,2.8864,2.8863,0,2.8732,2.8766,2.8801,2.8808,2.8819,2.8836,2.8841,2.885,2.8862,2.8877,2.8885,2.8903,2.8913,2.8927,2.8921,2.8901,2.896,2.8932,2.896,2.896,2.8972,2.8972,2.9057,2.898,2.898,2.898,2.898,0,2.8799,2.883,2.8825,2.8846,2.8881,2.8873,2.8907,2.891,2.8918,2.8939,2.8925,2.8945,2.8936,2.8956,2.8951,2.8983,2.8988,2.8988,2.8986,2.8989,2.8989,2.8995,2.899,2.8982,2.8982,2.8981,2.8981,0,2.8864,2.8862,2.8898,2.8906,2.8908,2.8933,2.894,2.8959,2.8959,2.8985,2.8991,2.899,2.9012,2.9008,2.9032,2.9029,2.9069,2.9063,2.9066,2.9064,2.9092,2.9089,2.9184,2.9196,2.9112,2.9113,2.9113,0,2.8906,2.893,2.894,2.8953,2.896,2.8981,2.8994,2.8987,2.9,2.9014,2.9032,2.9053,2.9069,2.9104,2.9105,2.9124,2.9118,2.915,2.912,2.9122,2.9117,2.9116,2.9118,2.9155,2.9156,2.9157,2.9158,0,2.8981,2.8979,2.8998,2.9016,2.9031,2.9045,2.9058,2.9069,2.9063,2.9079,2.9101,2.9114,2.9139,2.9159,2.9176,2.9181,2.9168,2.9167,2.9174,2.9177,2.9177,2.9177,2.9081,2.9165,2.9164,2.9163,2.9163,2.9163,2.9036,2.9056,2.9066,2.9087,2.9096,2.9108,2.9127,2.9129,2.9147,2.9167,2.9162,2.9187,2.9197,2.9218,2.9225,2.9244,2.9232,2.9243,2.9246,2.9248,2.9251,2.9175,2.9247,2.9247,2.9247,2.9247,2.9247,0,2.9109,2.9115,2.9135,2.9153,2.9169,2.9157,2.917,2.9184,2.9207,2.9217,2.9233,2.9259,2.9279,2.9281,2.93,2.9315,2.931,2.932,2.9318,2.932,2.9261,2.9253,2.9324,2.9324,2.9324,2.9324,2.9324,2.9324,2.915,2.9183,2.9182,2.9219,2.9225,2.9249,2.9258,2.9269,2.9277,2.9306,2.9323,2.9325,2.9332,2.9351,2.9368,2.9368,2.9376,2.9388,2.9386,2.9332,2.9324,2.9316,2.9308,2.939,2.939,2.9443,2.9443,2.9444]}]]